Temperature
25 24 24 25 30 29 27 27 27 26 26 25 24 25 24 24 24 21 19 18 18 18 17 17 18 18 18 18 18 18 18 18 18 18 18 18 18 18 18 18 18 18 18 18 18 18 18 18 18
24 24 25 29 30 28 27 27 26 26 25 24 24 24 24 22 21 20 18 18 18 18 18 17 18 18 18 18 18 18 18 18 18 18 18 18 18 18 18 18 18 18 18 18 18 18 18 18 18
25 25 28 31 29 28 27 27 26 25 25 25 24 24 23 22 20 19 18 18 18 18 18 18 18 18 18 18 18 18 18 18 18 18 18 18 18 18 18 18 18 18 18 18 18 17 18 18 17
25 28 30 31 28 28 28 27 27 26 25 25 25 24 22 20 20 19 18 18 18 18 18 18 18 18 18 18 18 18 18 18 18 18 18 18 18 18 18 18 18 18 18 18 18 18 18 18 17
27 31 31 29 28 28 28 27 27 27 26 25 25 23 21 19 19 18 18 18 19 18 18 17 18 18 18 18 18 18 18 18 18 18 18 18 18 18 18 18 18 17 17 17 18 18 18 18 18
31 33 31 29 28 28 28 27 27 26 25 25 24 24 21 19 19 19 19 19 19 18 18 17 18 18 18 18 18 18 18 18 18 18 18 18 18 18 18 18 18 18 18 18 18 18 18 18 18
32 32 31 30 29 28 28 27 27 27 26 25 25 24 21 19 19 18 18 18 19 18 18 18 17 18 18 18 18 18 18 18 18 18 18 18 18 18 18 18 18 18 18 18 18 18 18 18 18
31 33 31 30 29 28 28 27 26 26 25 24 24 24 22 19 19 19 18 18 18 18 18 18 18 17 17 17 18 18 18 18 18 18 18 18 18 18 18 18 18 18 18 18 18 18 18 18 18
31 33 31 31 30 29 28 27 26 26 25 24 24 24 22 20 19 19 19 18 18 18 18 18 18 17 17 17 17 18 18 18 18 18 18 17 17 17 17 17 18 18 18 18 18 18 18 18 18
33 32 31 31 31 30 28 28 27 26 26 24 23 22 20 20 20 20 19 19 19 18 18 18 18 18 18 17 17 17 17 17 17 17 17 17 17 17 17 18 18 18 18 18 18 18 18 18 18
33 32 31 31 30 29 29 28 27 28 27 25 23 21 20 20 20 20 20 20 19 18 18 18 18 18 18 18 18 17 17 17 17 17 17 17 17 17 17 17 17 17 17 17 17 17 17 18 18
32 32 31 30 29 29 29 28 28 27 27 25 23 22 21 21 21 20 20 19 19 19 18 18 18 18 18 18 18 18 18 17 17 17 17 17 17 17 17 17 17 17 17 17 17 17 17 17 17
32 31 30 30 29 29 29 28 28 26 25 24 23 22 21 21 21 20 20 20 19 18 18 18 18 18 18 18 18 18 18 18 18 17 17 17 18 17 17 17 17 17 17 17 17 17 17 17 17
32 31 30 30 29 29 29 28 28 26 25 24 23 22 22 22 21 21 20 20 19 19 19 18 18 18 18 18 18 18 18 18 18 17 17 17 17 17 17 17 17 17 17 17 17 17 17 17 17
31 32 31 30 30 29 29 29 29 26 25 24 23 23 22 21 21 21 20 20 19 19 19 18 18 18 18 18 18 18 18 18 18 18 18 18 17 18 17 17 17 17 17 17 17 17 17 17 17
32 32 31 31 31 30 30 29 28 26 25 25 24 23 22 22 21 21 20 20 19 19 18 18 18 18 18 18 18 18 18 18 18 18 18 18 18 17 18 18 18 18 17 17 17 17 17 17 17
32 32 32 31 31 31 31 30 28 26 26 25 24 24 23 22 21 21 20 20 19 19 19 18 18 18 18 18 18 18 18 18 18 18 18 18 18 18 18 18 18 18 17 17 18 17 17 17 17
32 32 32 32 31 31 31 31 29 27 27 26 25 24 23 23 22 21 20 20 20 19 19 19 18 18 18 18 18 18 18 18 18 18 18 18 18 18 18 18 18 18 18 18 17 17 17 17 17
33 33 32 32 31 31 31 30 30 28 27 27 26 25 24 23 23 22 21 20 20 19 19 19 19 19 19 18 18 18 18 18 18 18 18 18 18 18 18 18 18 18 18 17 17 17 17 17 17
32 32 32 31 31 31 31 31 31 29 28 27 27 26 25 24 23 22 21 20 20 20 20 19 19 19 19 19 19 18 18 18 18 18 18 18 18 18 18 18 18 18 18 17 17 17 17 17 17
32 32 32 31 31 31 31 31 30 30 28 28 27 26 26 25 24 23 22 21 21 20 20 20 20 19 19 19 18 18 18 18 18 18 18 18 18 18 18 18 18 18 17 17 17 17 17 17 17
32 32 32 31 31 32 31 31 31 31 29 29 28 27 26 26 24 24 22 22 21 21 21 20 20 20 20 19 19 18 18 18 18 18 18 18 18 18 18 18 18 18 18 17 17 17 17 17 17
32 32 32 32 32 32 32 32 32 31 30 30 29 28 27 26 25 24 23 22 22 21 21 20 20 20 20 20 19 19 18 18 18 18 18 18 18 18 18 18 18 18 17 17 17 17 17 17 17
31 31 31 31 32 31 31 31 32 32 32 32 30 29 27 27 26 24 24 22 22 21 21 21 20 20 20 20 20 19 19 19 18 18 18 18 18 18 18 18 18 18 18 17 17 17 17 17 17
31 31 30 30 30 31 31 31 32 32 32 31 30 29 28 27 26 25 24 23 22 22 21 21 21 21 20 20 20 19 19 19 18 18 18 18 18 18 18 17 18 17 17 17 17 17 17 17 17
31 32 31 30 30 31 30 31 32 32 31 30 29 29 28 27 26 25 24 23 23 22 22 21 21 21 21 20 20 19 19 18 18 18 18 18 18 18 18 17 17 17 17 17 17 17 17 17 17
31 31 33 32 31 31 31 31 32 31 31 30 30 29 28 27 26 25 24 23 23 22 22 21 21 21 21 20 20 19 19 19 18 18 18 18 18 17 17 17 17 17 17 17 17 17 17 17 17
32 32 31 31 30 30 31 31 32 31 31 31 30 29 28 27 26 25 24 23 23 22 22 21 21 21 21 20 20 19 19 19 18 18 18 18 18 17 17 17 17 17 17 17 17 16 16 17 17
30 31 31 31 31 30 30 31 33 32 31 31 31 29 28 27 26 25 24 23 22 22 21 21 21 20 20 20 20 19 19 19 18 18 18 18 17 17 17 17 17 16 16 16 16 16 16 16 16
31 31 31 30 29 30 31 32 32 31 31 30 30 29 27 26 26 25 24 23 22 22 21 21 21 20 20 20 20 19 19 18 18 18 18 17 17 17 17 17 16 16 16 16 16 16 16 16 16
Wind_Speed
12 10 6 4 4 10 15 12 11 9 8 10 10 9 11 12 9 9 6 7 8 10 12 14 14 14 15 15 16 16 17 17 17 16 16 16 16 17 17 18 18 18 18 18 18 18 18 17 17
9 7 5 1 8 13 14 11 12 11 10 9 10 11 13 11 10 9 8 8 8 10 12 13 14 14 15 15 15 16 16 16 16 16 16 15 17 17 17 17 18 18 17 17 18 17 17 16 16
7 5 0 7 15 15 13 12 12 11 8 7 8 9 8 8 8 7 10 9 9 10 12 14 13 14 15 15 15 15 16 16 15 15 16 16 17 16 17 17 17 16 16 16 16 16 16 16 15
4 3 4 12 18 16 14 11 10 10 10 8 9 10 9 8 6 10 11 10 10 11 13 15 12 14 14 14 15 15 15 15 15 15 15 16 16 16 17 16 16 15 15 15 15 15 15 14 13
2 5 12 16 18 14 12 10 8 10 9 10 10 13 11 10 12 13 11 10 10 11 12 14 12 13 13 13 13 14 14 15 15 15 15 15 15 15 16 15 15 14 14 14 13 13 13 12 11
2 6 12 15 16 12 11 9 10 12 12 11 12 13 9 9 11 11 11 9 10 10 12 13 12 12 12 12 12 13 13 14 14 14 14 14 14 14 14 14 14 14 13 13 12 12 11 10 10
5 10 14 16 14 12 9 8 9 10 11 10 9 12 9 10 10 10 10 9 9 9 10 10 11 12 12 11 11 12 12 12 13 13 13 13 13 13 13 13 12 12 12 11 11 10 10 9 9
3 8 14 14 13 12 10 9 9 10 10 9 5 8 10 11 11 11 10 9 9 8 8 8 9 9 10 12 11 11 11 11 11 11 11 11 12 12 11 11 11 10 10 9 9 8 8 7 7
3 9 13 12 12 12 10 10 9 9 11 8 8 10 14 15 12 11 10 10 9 7 6 6 8 8 8 10 11 10 10 9 9 10 9 7 8 9 9 11 10 9 8 8 7 7 6 6 7
5 11 14 11 11 12 10 10 9 9 10 10 11 13 15 13 12 10 9 9 9 8 7 6 6 6 7 7 8 6 7 7 6 6 6 6 6 6 8 11 8 7 7 7 6 6 6 6 6
8 12 11 10 10 11 11 10 7 9 8 9 13 15 14 12 10 9 8 7 8 7 6 6 5 4 4 5 5 5 5 5 6 6 5 5 5 5 5 5 7 6 5 4 6 5 2 2 2
9 10 9 10 9 10 10 9 8 8 10 10 13 15 14 12 10 8 8 7 7 6 6 5 5 4 3 3 3 3 4 4 4 5 3 4 3 3 4 2 3 3 3 2 2 1 2 2 2
9 9 9 10 10 10 10 9 9 9 10 12 14 14 13 11 10 8 8 7 7 6 6 5 4 4 3 2 1 2 2 3 4 3 3 2 3 3 3 2 1 1 2 2 1 1 1 1 1
9 10 11 10 10 9 9 9 8 9 11 13 14 12 11 10 9 8 8 7 6 6 6 5 4 4 3 2 1 1 2 2 2 2 3 1 2 2 1 2 1 1 1 1 0 1 1 0 0
10 10 10 8 7 7 8 8 8 11 12 13 12 11 10 9 8 8 8 7 6 6 5 5 5 4 3 2 2 2 2 2 2 2 2 1 1 1 1 1 1 1 1 1 1 0 1 1 1
7 7 7 7 6 6 5 8 9 12 12 12 11 10 9 8 8 7 7 7 6 6 6 5 4 5 4 3 2 1 1 1 1 1 2 1 1 1 2 1 0 1 2 1 1 1 1 0 1
7 5 6 7 6 5 4 6 10 11 12 11 11 10 9 9 8 8 8 8 7 7 6 6 5 4 4 3 3 2 1 1 2 2 2 1 2 2 2 1 0 2 1 1 2 1 1 1 1
7 6 5 5 7 6 4 4 10 11 11 11 11 10 10 9 9 9 8 8 8 7 7 7 6 5 4 3 3 2 2 2 2 2 2 2 3 3 3 2 1 2 1 1 1 1 2 2 1
5 5 5 4 5 6 5 4 8 11 12 11 11 11 11 10 10 10 9 9 8 8 8 8 7 6 5 4 3 3 2 2 2 2 2 3 3 3 3 3 2 3 2 2 2 2 3 3 2
7 7 6 6 4 5 4 5 7 10 12 12 12 12 12 11 11 11 10 10 10 9 9 9 8 7 6 4 3 2 2 3 2 2 2 2 2 3 3 3 4 3 3 3 3 3 3 3 3
9 8 7 6 6 6 5 6 8 9 10 11 11 12 12 12 13 13 12 11 11 10 10 8 8 8 7 6 4 3 3 3 3 3 2 2 2 2 3 3 4 4 4 3 4 4 5 4 3
10 7 7 7 7 4 5 3 6 9 10 12 13 13 13 13 13 13 13 12 12 11 10 9 8 8 7 6 6 5 4 4 3 3 2 3 3 3 3 3 4 4 4 3 4 4 4 4 4
6 6 7 8 7 6 6 5 4 8 8 10 13 14 13 13 14 13 13 12 11 11 10 9 9 8 8 7 6 6 5 4 3 3 3 3 2 3 3 3 3 4 4 3 4 3 4 4 4
9 8 6 7 9 9 6 7 4 4 4 5 8 11 13 13 13 13 12 11 11 10 10 9 9 8 8 8 7 7 6 5 4 4 3 3 2 2 2 3 3 3 3 3 3 3 3 3 3
12 11 8 9 9 8 5 7 4 1 2 4 6 8 11 12 13 13 13 12 12 12 11 10 9 8 8 8 7 7 6 6 5 5 4 3 2 2 2 2 2 2 2 3 3 2 3 3 3
14 15 10 8 8 7 7 7 4 2 3 3 5 6 8 10 12 12 13 12 12 12 11 10 9 8 8 7 7 6 6 5 4 4 3 2 2 2 1 1 1 2 2 2 2 2 2 2 2
13 13 11 9 8 8 7 6 5 5 5 5 5 7 8 9 10 11 12 12 12 11 11 10 10 8 7 7 6 6 5 4 3 2 3 2 1 1 0 1 1 1 1 1 2 2 2 2 2
9 11 9 10 10 10 9 10 7 7 7 6 6 7 7 8 9 10 11 11 10 10 10 9 9 8 7 7 6 5 5 4 3 2 1 1 1 0 0 0 1 0 0 1 1 1 1 1 1
11 13 11 10 10 11 9 6 3 5 5 6 7 7 8 8 9 10 10 11 10 10 10 10 9 8 8 7 6 5 5 4 4 3 2 1 1 1 1 0 0 1 1 1 1 1 1 1 2
12 13 14 12 10 10 10 5 5 4 5 5 6 7 7 7 8 9 10 10 11 10 10 10 9 9 8 7 7 6 5 5 4 3 2 2 2 1 1 1 1 1 1 1 1 1 2 1 1
Wind_Direction
173 178 203 222 109 77 69 67 73 79 69 62 62 64 65 51 54 84 95 91 91 89 90 91 84 86 87 88 90 90 91 92 92 91 92 94 98 99 98 99 99 100 99 100 104 103 102 103 103
168 182 212 128 77 79 70 69 73 72 87 91 78 74 75 67 67 96 109 101 98 93 92 86 89 89 89 89 90 92 93 93 93 91 91 94 99 98 98 99 99 100 100 100 101 102 102 103 104
171 213 65 71 65 70 78 77 84 85 86 86 83 67 63 72 82 95 105 112 103 95 93 89 87 89 88 88 90 92 93 94 93 92 91 92 98 100 99 99 99 100 100 100 100 100 101 103 105
192 170 90 77 75 70 80 89 97 97 86 82 92 84 74 61 85 106 116 116 109 101 95 93 88 89 89 89 90 90 91 93 94 93 93 94 96 97 97 97 98 99 100 101 100 100 102 105 107
194 96 88 81 78 80 83 85 87 87 85 88 90 93 84 76 98 113 119 117 108 102 98 98 92 91 91 92 92 91 91 93 94 93 94 94 95 97 97 98 98 98 100 102 101 102 104 107 109
125 89 84 84 85 87 86 86 89 91 97 97 99 99 88 102 110 116 115 112 107 103 101 104 102 96 94 94 95 94 94 93 94 93 94 95 95 96 98 99 98 97 98 100 101 102 104 108 110
73 80 84 89 93 92 88 87 90 96 97 92 99 100 110 116 116 117 116 114 104 101 103 107 110 112 107 99 96 95 94 95 96 96 96 95 95 97 98 99 98 99 100 102 103 106 107 109 112
74 92 89 87 90 92 101 95 91 96 95 100 99 105 125 131 130 126 120 115 110 104 104 106 104 108 113 111 102 98 96 97 100 100 100 104 108 109 113 112 102 103 104 106 108 111 112 112 115
107 88 84 84 90 103 116 110 100 98 105 94 81 96 120 132 136 132 130 126 122 115 109 110 114 115 112 111 112 115 111 107 116 112 113 125 114 113 121 97 102 106 109 112 116 118 123 138 140
85 81 79 79 90 110 119 111 114 119 112 107 106 108 123 137 141 139 139 136 132 129 125 120 116 117 113 110 117 117 112 111 105 101 111 111 100 98 102 111 111 111 118 128 134 144 171 199 151
79 84 93 94 98 110 116 111 112 116 112 121 132 135 140 142 143 143 139 134 132 136 132 130 121 111 109 115 115 107 109 112 113 105 111 110 122 119 116 123 133 135 152 141 143 176 149 123 93
94 89 96 103 112 114 113 112 106 92 90 119 134 141 144 148 146 144 142 141 142 144 138 135 135 131 113 102 114 132 123 118 108 108 113 116 108 105 102 110 109 134 128 111 126 122 101 84 107
105 102 101 111 117 113 115 109 106 101 106 124 134 142 147 148 147 149 147 148 147 150 149 142 144 137 136 126 146 117 111 108 111 110 104 98 110 102 106 105 101 134 121 150 148 94 99 139 144
112 113 116 120 120 125 121 117 115 114 128 135 143 150 154 153 155 156 159 159 160 160 154 151 158 148 152 156 148 135 132 121 115 119 106 95 93 101 114 148 153 130 168 82 101 127 160 196 129
132 127 127 129 133 140 140 120 115 131 141 145 152 155 158 162 165 167 166 168 166 163 157 161 165 164 169 175 183 168 163 155 141 124 127 155 153 129 222 163 188 157 150 151 215 219 216 201 177
160 159 142 140 155 164 203 109 128 148 154 155 159 161 166 171 175 174 170 173 173 170 167 173 177 170 178 186 213 211 215 177 185 179 161 188 219 219 249 237 231 187 219 203 208 232 241 219 216
185 171 143 144 172 174 203 114 139 162 167 166 170 172 175 178 182 179 179 178 177 177 177 181 185 184 189 191 202 213 208 235 234 221 214 209 233 234 243 255 8 240 245 257 263 141 258 218 200
180 175 169 155 166 189 197 134 147 170 179 178 179 180 183 187 186 183 184 182 180 181 183 186 188 194 201 201 202 216 213 217 224 228 240 252 242 234 250 238 245 253 234 234 260 264 249 248 235
195 195 175 146 157 197 204 184 167 177 188 189 189 189 190 194 186 182 184 185 183 185 188 191 195 191 202 209 218 219 218 223 234 229 224 247 258 248 255 274 253 264 257 258 249 248 227 223 207
199 199 182 155 168 212 211 209 187 188 198 199 196 195 193 191 189 187 188 190 191 190 195 196 198 198 206 207 220 234 258 251 245 259 231 250 256 257 246 263 268 258 259 254 252 247 247 229 214
205 211 197 175 171 201 225 201 190 193 204 205 206 204 200 196 194 191 192 195 194 196 198 198 199 198 206 210 213 215 220 244 239 242 235 250 260 264 289 277 276 275 265 249 242 240 240 243 231
206 209 202 191 208 197 235 219 174 185 198 206 208 206 204 200 198 196 195 195 197 197 196 197 197 200 203 208 217 221 233 245 250 252 251 249 250 259 266 274 275 275 274 263 252 240 247 247 247
201 176 195 209 230 238 221 256 169 171 201 204 205 206 204 201 199 198 197 195 195 196 195 192 193 198 200 206 213 221 234 238 235 237 241 254 248 257 264 264 273 274 278 279 278 268 259 252 255
156 158 177 216 236 236 233 256 221 176 200 189 190 200 201 199 197 196 194 190 192 192 193 190 189 196 198 202 208 217 228 238 247 245 243 243 241 251 258 256 263 266 276 275 268 271 260 268 268
190 194 202 212 221 229 209 243 246 171 199 207 194 192 195 194 193 192 191 190 190 190 188 188 188 192 195 198 206 211 221 227 234 244 240 254 259 257 259 263 261 266 265 273 273 265 277 265 260
205 216 226 230 226 216 195 234 227 165 205 209 195 188 185 185 187 189 189 188 188 187 186 186 185 188 191 195 202 208 215 228 232 232 250 245 262 266 266 275 263 264 267 277 284 282 280 278 270
203 221 237 242 247 246 218 221 224 197 203 195 184 177 177 179 180 183 184 184 184 181 182 182 180 182 184 188 192 196 202 214 223 214 233 247 240 232 228 272 269 258 261 279 282 301 307 306 297
225 211 216 232 236 238 231 230 227 201 199 191 188 180 172 172 173 176 178 179 179 177 174 173 171 171 174 177 183 175 178 179 186 194 176 186 195 183 167 289 295 295 337 321 307 313 318 328 327
194 206 220 227 241 245 241 230 192 200 194 192 184 177 171 170 169 170 171 171 170 169 167 167 167 167 167 169 168 169 163 159 155 151 151 154 144 127 103 44 52 45 25 3 333 332 333 343 347
215 214 212 221 224 242 256 230 129 175 188 192 182 171 165 167 164 162 162 164 165 166 167 166 167 167 165 163 160 159 155 151 149 144 138 127 122 124 126 108 93 85 61 12 356 348 11 22 14
Height
1498 1498 1498 1500 1495 1499 1509 1510 1508 1512 1515 1519 1520 1519 1521 1523 1525 1537 1541 1540 1540 1540 1539 1538 1538 1537 1537 1537 1537 1537 1537 1537 1537 1538 1538 1539 1539 1540 1541 1541 1542 1543 1544 1545 1546 1547 1548 1549 1551
1500 1499 1501 1497 1495 1510 1517 1512 1514 1517 1520 1522 1522 1523 1525 1530 1534 1538 1540 1541 1542 1543 1543 1541 1541 1540 1540 1540 1541 1541 1541 1541 1541 1541 1541 1541 1542 1543 1544 1545 1545 1547 1548 1548 1549 1551 1551 1552 1553
1501 1501 1501 1495 1502 1512 1519 1516 1518 1521 1523 1523 1525 1527 1530 1535 1539 1541 1542 1543 1544 1545 1545 1543 1543 1544 1544 1544 1544 1544 1544 1544 1545 1545 1545 1545 1545 1547 1547 1548 1549 1550 1551 1552 1553 1554 1554 1555 1556
1503 1503 1499 1500 1511 1513 1515 1518 1520 1522 1525 1526 1526 1530 1536 1540 1541 1543 1544 1546 1547 1548 1548 1546 1546 1547 1547 1547 1547 1548 1548 1548 1548 1548 1549 1549 1549 1550 1550 1551 1552 1553 1554 1555 1556 1557 1557 1558 1559
1504 1500 1499 1508 1514 1516 1518 1521 1521 1522 1525 1528 1529 1533 1539 1543 1544 1545 1547 1548 1550 1550 1550 1549 1549 1549 1550 1550 1550 1551 1551 1551 1551 1552 1552 1552 1552 1553 1553 1554 1555 1556 1557 1558 1559 1559 1560 1561 1562
1503 1497 1504 1514 1518 1518 1521 1523 1524 1526 1529 1531 1532 1536 1543 1546 1547 1548 1549 1551 1552 1552 1553 1552 1551 1552 1552 1553 1553 1553 1554 1554 1554 1555 1555 1555 1556 1556 1557 1557 1558 1559 1559 1560 1561 1562 1563 1564 1564
1503 1499 1507 1512 1518 1520 1524 1525 1526 1527 1530 1533 1535 1537 1545 1548 1549 1550 1551 1552 1553 1554 1555 1555 1555 1555 1555 1555 1556 1556 1556 1557 1557 1558 1558 1558 1559 1559 1560 1560 1561 1561 1562 1563 1564 1564 1565 1566 1566
1505 1500 1506 1510 1517 1522 1525 1528 1529 1530 1534 1537 1538 1539 1545 1549 1551 1552 1553 1554 1555 1556 1557 1558 1558 1558 1559 1559 1558 1559 1559 1559 1560 1560 1561 1561 1562 1562 1563 1563 1563 1564 1565 1565 1566 1566 1567 1568 1568
1506 1503 1510 1512 1515 1521 1526 1528 1532 1534 1536 1539 1540 1542 1546 1550 1552 1553 1555 1556 1557 1558 1558 1559 1560 1560 1561 1562 1561 1562 1562 1562 1562 1563 1563 1564 1565 1566 1566 1566 1566 1566 1567 1567 1567 1568 1568 1569 1570
1505 1507 1513 1514 1515 1520 1526 1528 1532 1534 1537 1540 1544 1546 1549 1551 1553 1555 1557 1558 1559 1560 1560 1561 1562 1563 1563 1564 1564 1565 1565 1565 1565 1565 1565 1566 1567 1568 1568 1568 1568 1568 1568 1569 1569 1569 1570 1571 1573
1507 1510 1515 1518 1520 1523 1526 1530 1532 1533 1535 1540 1544 1548 1550 1553 1555 1557 1558 1559 1560 1561 1562 1562 1563 1564 1565 1566 1566 1567 1567 1567 1567 1567 1567 1568 1569 1570 1570 1571 1570 1570 1570 1571 1570 1571 1573 1574 1573
1512 1515 1517 1520 1524 1525 1528 1531 1533 1535 1538 1542 1545 1549 1551 1554 1556 1558 1559 1560 1561 1562 1563 1564 1564 1565 1565 1567 1568 1568 1569 1569 1569 1569 1569 1570 1570 1571 1571 1571 1572 1572 1572 1572 1572 1572 1573 1573 1573
1514 1518 1521 1524 1526 1528 1530 1532 1535 1539 1542 1545 1548 1550 1553 1555 1557 1559 1560 1561 1562 1563 1564 1565 1565 1566 1566 1567 1568 1570 1570 1571 1570 1570 1570 1571 1572 1572 1572 1571 1572 1573 1573 1573 1572 1573 1573 1573 1573
1516 1519 1522 1525 1528 1530 1531 1534 1536 1541 1544 1546 1549 1551 1553 1555 1557 1559 1560 1562 1563 1564 1565 1566 1566 1567 1567 1568 1569 1570 1571 1570 1571 1572 1572 1571 1572 1572 1572 1572 1572 1572 1572 1573 1572 1573 1572 1573 1573
1518 1519 1523 1525 1527 1530 1530 1533 1536 1542 1545 1547 1550 1552 1554 1556 1558 1559 1561 1562 1563 1565 1565 1566 1567 1567 1568 1569 1569 1571 1571 1572 1572 1572 1572 1572 1572 1572 1572 1572 1572 1572 1572 1572 1572 1572 1572 1572 1573
1515 1516 1521 1524 1526 1529 1528 1534 1537 1542 1544 1547 1549 1552 1554 1556 1558 1559 1561 1562 1563 1564 1565 1566 1568 1568 1568 1569 1569 1571 1572 1572 1572 1572 1573 1572 1572 1572 1571 1572 1572 1571 1572 1572 1571 1571 1572 1572 1572
1515 1518 1520 1523 1524 1525 1525 1529 1536 1541 1543 1546 1549 1551 1554 1555 1557 1559 1560 1562 1563 1564 1565 1566 1567 1568 1568 1569 1569 1570 1571 1571 1572 1572 1573 1572 1572 1571 1571 1571 1571 1571 1571 1571 1571 1571 1571 1571 1571
1516 1516 1519 1521 1521 1524 1525 1526 1533 1539 1541 1543 1547 1549 1552 1554 1556 1558 1559 1561 1562 1563 1564 1565 1566 1567 1568 1569 1569 1570 1570 1571 1571 1572 1571 1571 1572 1571 1571 1571 1570 1570 1570 1570 1569 1569 1569 1569 1569
1510 1513 1518 1519 1520 1523 1525 1526 1530 1536 1539 1541 1544 1547 1549 1552 1555 1557 1558 1560 1561 1562 1563 1564 1565 1566 1567 1568 1569 1570 1570 1571 1571 1571 1571 1571 1571 1571 1570 1570 1569 1569 1569 1568 1569 1568 1568 1568 1568
1511 1516 1518 1521 1521 1522 1523 1525 1525 1531 1535 1537 1540 1543 1546 1549 1552 1555 1556 1558 1559 1560 1561 1563 1564 1565 1566 1567 1568 1569 1569 1570 1570 1570 1570 1570 1570 1569 1570 1568 1568 1568 1567 1567 1566 1566 1566 1566 1566
1513 1514 1516 1520 1522 1521 1523 1524 1525 1527 1532 1535 1537 1540 1543 1546 1549 1552 1554 1556 1557 1559 1560 1561 1562 1564 1565 1566 1567 1568 1568 1568 1569 1569 1569 1568 1568 1568 1567 1567 1566 1566 1566 1566 1565 1564 1564 1565 1564
1516 1511 1514 1518 1522 1521 1522 1528 1521 1521 1526 1530 1533 1536 1539 1542 1545 1548 1551 1553 1555 1556 1558 1559 1561 1562 1563 1564 1565 1566 1566 1567 1567 1567 1567 1567 1566 1566 1565 1565 1564 1564 1564 1563 1563 1563 1563 1562 1562
1511 1513 1514 1516 1519 1521 1520 1524 1518 1518 1522 1523 1527 1531 1534 1538 1541 1545 1547 1550 1552 1554 1556 1557 1559 1560 1561 1562 1563 1563 1565 1566 1566 1566 1565 1565 1565 1564 1563 1563 1563 1562 1562 1561 1561 1561 1560 1560 1560
1513 1516 1518 1517 1516 1530 1523 1526 1523 1512 1515 1516 1521 1526 1530 1534 1538 1541 1544 1547 1549 1552 1554 1555 1556 1557 1558 1559 1560 1561 1562 1563 1563 1563 1564 1563 1563 1562 1561 1561 1560 1560 1560 1559 1559 1558 1558 1558 1557
1512 1518 1530 1534 1532 1530 1519 1524 1519 1509 1511 1515 1518 1523 1527 1530 1534 1538 1541 1543 1546 1548 1550 1552 1553 1555 1556 1557 1558 1559 1560 1560 1561 1561 1561 1561 1561 1561 1559 1559 1558 1558 1557 1557 1557 1556 1556 1556 1555
1509 1510 1525 1536 1533 1524 1522 1523 1511 1508 1512 1515 1518 1521 1524 1527 1531 1534 1537 1540 1543 1545 1547 1549 1551 1552 1554 1555 1555 1556 1557 1558 1559 1559 1559 1559 1559 1559 1558 1557 1556 1556 1555 1555 1555 1555 1554 1554 1553
1509 1508 1502 1514 1519 1524 1517 1514 1509 1508 1511 1513 1516 1519 1522 1525 1528 1531 1534 1537 1540 1542 1544 1547 1548 1550 1551 1552 1553 1554 1555 1555 1556 1557 1557 1557 1557 1556 1556 1555 1555 1554 1554 1553 1553 1553 1552 1552 1551
1501 1502 1509 1515 1531 1533 1523 1518 1512 1509 1508 1510 1513 1516 1520 1523 1526 1529 1532 1535 1537 1540 1542 1544 1546 1547 1548 1550 1551 1552 1552 1553 1554 1555 1555 1555 1555 1554 1554 1553 1553 1552 1552 1551 1551 1551 1550 1550 1549
1506 1507 1506 1509 1513 1524 1528 1517 1498 1503 1505 1508 1511 1515 1518 1521 1524 1527 1530 1532 1535 1538 1540 1541 1543 1545 1546 1548 1549 1550 1550 1551 1552 1553 1553 1553 1553 1553 1552 1551 1551 1551 1550 1550 1550 1549 1549 1548 1548
1498 1500 1505 1516 1520 1515 1516 1512 1498 1502 1505 1508 1510 1514 1517 1520 1523 1525 1528 1531 1533 1535 1537 1539 1541 1543 1544 1546 1547 1548 1549 1550 1550 1551 1551 1552 1552 1551 1551 1550 1550 1550 1550 1549 1548 1548 1548 1547 1547